Weather History for Lambertville, MI

Change the Weather History Date:

Wednesday, October 23, 2013

  Actual Average (KTOL) Record (KTOL)
Temperature  
Mean Temperature 40 °F 50 °F  
Max Temperature 48 °F 60 °F 83 °F (1963)
Min Temperature 32 °F 40 °F 21 °F (1969)
Degree Days  
Heating Degree Days 25 15  
Month to date heating degree days 271  
Since 1 July heating degree days 395  
Cooling Degree Days 0 0  
Month to date cooling degree days 8  
Year to date cooling degree days 792  
Moisture  
Dew Point 32 °F    
Average Humidity 78    
Maximum Humidity 100    
Minimum Humidity 46    
Precipitation  
Precipitation 0.00 in 0.08 in 1.68 in (1957)
Month to date precipitation 1.95  
Year to date precipitation 28.05  
Snow  
Snow 0.00 in 0.00 in - ()
Month to date snowfall 0.1  
Since 1 July snowfall 0.1  
Since 1 September snowfall 0.1  
Snow Depth -    
Sea Level Pressure  
Sea Level Pressure 29.88 in    
Wind  
Wind Speed 3 mph (WNW)    
Max Wind Speed 10 mph    
Max Gust Speed 17 mph    
Visibility 9 miles    
Events Rain    
T = Trace of Precipitation, MM = Missing Value Source: NWS Daily Summary

Daily Weather History Graph

Daily Weather History Graph

Search for Another Location

Airport:

Trip Planner

Search our weather history database for the weather conditions in past years. The results will help you decide how hot, cold, wet, or windy it might be!

Date:

Astronomy

Oct. 23, 2013 Rise Set
Actual Time 7:56 AM EDT 6:40 PM EDT
Civil Twilight 7:27 AM EDT 7:09 PM EDT
Nautical Twilight 6:55 AM EDT 7:41 PM EDT
Astronomical Twilight 6:23 AM EDT 8:13 PM EDT
Moon 10:08 PM EDT (10/23) 12:14 PM EDT (10/23)
Length of Visible Light 11h 41m
Length of Day
10h 44m
Waning Gibbous, 79% of the Moon is Illuminated
Oct 23
Waning Gibbous
Oct 26
Last Quarter
Nov 3
New
Nov 10
First Quarter
Nov 17
Full

Hourly Weather History & Observations

Time (EDT) Temp. Windchill Dew Point Humidity Pressure Visibility Wind Dir Wind Speed Gust Speed Precip Events Conditions
12:15 AM 39.2 °F 37.0 °F 33.8 °F 81% 29.90 in 10.0 mi WSW 3.5 mph - N/A   Overcast
12:35 AM 39.2 °F 37.0 °F 33.8 °F 81% 29.89 in 10.0 mi WSW 3.5 mph - N/A Rain Light Rain
12:55 AM 39.2 °F - 33.8 °F 81% 29.89 in 7.0 mi Calm Calm - N/A Rain Light Rain
1:15 AM 37.4 °F 34.9 °F 33.8 °F 87% 29.88 in 10.0 mi WSW 3.5 mph - N/A   Drizzle
1:35 AM 37.4 °F - 33.8 °F 87% 29.87 in 10.0 mi Calm Calm - N/A   Overcast
1:55 AM 37.4 °F - 33.8 °F 87% 29.87 in 10.0 mi Calm Calm - N/A   Overcast
2:15 AM 37.4 °F - 33.8 °F 87% 29.86 in 10.0 mi Calm Calm - N/A   Mostly Cloudy
2:35 AM 37.4 °F - 33.8 °F 87% 29.86 in 10.0 mi Calm Calm - N/A   Overcast
2:55 AM 37.4 °F - 33.8 °F 87% 29.86 in 10.0 mi Calm Calm - N/A   Overcast
3:15 AM 37.4 °F - 33.8 °F 87% 29.85 in 10.0 mi Calm Calm - N/A   Overcast
3:35 AM 37.4 °F - 33.8 °F 87% 29.84 in 10.0 mi Calm Calm - N/A   Mostly Cloudy
3:55 AM 35.6 °F - 33.8 °F 93% 29.83 in 10.0 mi Calm Calm - N/A   Mostly Cloudy
4:15 AM 35.6 °F - 33.8 °F 93% 29.82 in 10.0 mi Calm Calm - N/A   Scattered Clouds
4:35 AM 35.6 °F - 32.0 °F 87% 29.82 in 10.0 mi Calm Calm - N/A   Clear
4:55 AM 35.6 °F - 33.8 °F 93% 29.82 in 7.0 mi Calm Calm - N/A   Clear
5:15 AM 35.6 °F - 32.0 °F 87% 29.82 in 7.0 mi Calm Calm - N/A   Clear
5:35 AM 33.8 °F - 32.0 °F 93% 29.82 in 7.0 mi Calm Calm - N/A   Clear
5:55 AM 33.8 °F 30.8 °F 32.0 °F 93% 29.82 in 5.0 mi West 3.5 mph - N/A   Clear
6:15 AM 33.8 °F - 32.0 °F 93% 29.82 in 5.0 mi Calm Calm - N/A   Clear
6:35 AM 33.8 °F - 32.0 °F 93% 29.83 in 5.0 mi Calm Calm - N/A   Clear
6:55 AM 33.8 °F 30.8 °F 32.0 °F 93% 29.83 in 4.0 mi West 3.5 mph - N/A   Clear
7:15 AM 32.0 °F - 32.0 °F 100% 29.84 in 3.0 mi Calm Calm - N/A   Clear
7:35 AM 32.0 °F - 32.0 °F 100% 29.83 in 3.0 mi Calm Calm - N/A   Clear
7:55 AM 32.0 °F - 32.0 °F 100% 29.84 in 3.0 mi Calm Calm - N/A   Clear
8:15 AM 32.0 °F 28.7 °F 32.0 °F 100% 29.85 in 2.0 mi West 3.5 mph - N/A   Clear
8:35 AM 32.0 °F 28.7 °F 32.0 °F 100% 29.85 in 2.5 mi West 3.5 mph - N/A   Clear
8:55 AM 33.8 °F - 32.0 °F 93% 29.87 in 2.5 mi Calm Calm - N/A   Clear
9:15 AM 33.8 °F 30.8 °F 32.0 °F 93% 29.87 in 3.0 mi West 3.5 mph - N/A   Clear
9:35 AM 35.6 °F 32.8 °F 32.0 °F 87% 29.87 in 5.0 mi West 3.5 mph - N/A   Clear
9:55 AM 37.4 °F 33.8 °F 33.8 °F 87% 29.87 in 5.0 mi NW 4.6 mph - N/A   Scattered Clouds
10:15 AM 37.4 °F 33.8 °F 33.8 °F 87% 29.87 in 7.0 mi WNW 4.6 mph - N/A   Scattered Clouds
10:35 AM 41.0 °F 37.1 °F 35.6 °F 81% 29.88 in 10.0 mi NW 5.8 mph - N/A   Mostly Cloudy
10:55 AM 41.0 °F 37.1 °F 35.6 °F 81% 29.88 in 10.0 mi NNW 5.8 mph - N/A   Overcast
11:15 AM 42.8 °F 41.1 °F 35.6 °F 76% 29.88 in 10.0 mi NNW 3.5 mph - N/A   Mostly Cloudy
11:35 AM 44.6 °F 40.7 °F 35.6 °F 71% 29.88 in 10.0 mi NW 6.9 mph - N/A   Mostly Cloudy
11:55 AM 44.6 °F 42.2 °F 33.8 °F 66% 29.88 in 10.0 mi NNW 4.6 mph - N/A   Mostly Cloudy
12:15 PM 46.4 °F 42.9 °F 32.0 °F 57% 29.88 in 10.0 mi West 6.9 mph - N/A   Mostly Cloudy
12:35 PM 44.6 °F 40.7 °F 32.0 °F 61% 29.88 in 10.0 mi NW 6.9 mph - N/A   Mostly Cloudy
12:55 PM 46.4 °F 43.5 °F 33.8 °F 62% 29.88 in 10.0 mi WNW 5.8 mph - N/A   Mostly Cloudy
1:15 PM 44.6 °F 40.2 °F 30.2 °F 57% 29.88 in 10.0 mi WNW 8.1 mph - N/A   Mostly Cloudy
1:35 PM 46.4 °F 42.9 °F 32.0 °F 57% 29.87 in 10.0 mi West 6.9 mph - N/A   Mostly Cloudy
1:55 PM 48.2 °F - 32.0 °F 54% 29.87 in 10.0 mi West 8.1 mph - N/A   Overcast
2:15 PM 48.2 °F - 30.2 °F 50% 29.87 in 10.0 mi NW 6.9 mph - N/A   Mostly Cloudy
2:35 PM 46.4 °F 42.9 °F 32.0 °F 57% 29.87 in 10.0 mi West 6.9 mph - N/A   Scattered Clouds
2:55 PM 46.4 °F 42.9 °F 28.4 °F 50% 29.87 in 10.0 mi WNW 6.9 mph - N/A   Scattered Clouds
3:15 PM 48.2 °F - 28.4 °F 46% 29.87 in 10.0 mi WNW 3.5 mph - N/A   Mostly Cloudy
3:35 PM 46.4 °F 41.5 °F 28.4 °F 50% 29.87 in 10.0 mi WNW 10.4 mph - N/A   Overcast
3:55 PM 46.4 °F 42.9 °F 26.6 °F 46% 29.87 in 10.0 mi West 6.9 mph - N/A   Overcast
4:15 PM 46.4 °F 43.5 °F 26.6 °F 46% 29.88 in 10.0 mi WNW 5.8 mph - N/A   Mostly Cloudy
4:35 PM 46.4 °F 43.5 °F 26.6 °F 46% 29.88 in 10.0 mi WNW 5.8 mph - N/A   Mostly Cloudy
4:55 PM 48.2 °F - 28.4 °F 46% 29.89 in 10.0 mi WNW 6.9 mph - N/A   Overcast
5:15 PM 42.8 °F 38.0 °F 32.0 °F 66% 29.89 in 10.0 mi North 8.1 mph - N/A   Overcast
5:35 PM 42.8 °F - 32.0 °F 66% 29.90 in 10.0 mi Calm Calm - N/A   Overcast
5:55 PM 42.8 °F 38.0 °F 32.0 °F 66% 29.92 in 10.0 mi WNW 8.1 mph 17.3 mph N/A Rain Light Rain
6:15 PM 39.2 °F 35.0 °F 33.8 °F 81% 29.92 in 10.0 mi NW 5.8 mph - N/A   Overcast
6:35 PM 41.0 °F 37.1 °F 33.8 °F 76% 29.93 in 10.0 mi NW 5.8 mph - N/A   Overcast
6:55 PM 39.2 °F 35.9 °F 33.8 °F 81% 29.93 in 10.0 mi NW 4.6 mph - N/A   Overcast
7:15 PM 39.2 °F 35.9 °F 33.8 °F 81% 29.93 in 10.0 mi NW 4.6 mph - N/A   Overcast
7:35 PM 37.4 °F - 33.8 °F 87% 29.94 in 10.0 mi Calm Calm - N/A   Overcast
7:55 PM 39.2 °F 34.2 °F 33.8 °F 81% 29.95 in 10.0 mi West 6.9 mph - N/A   Overcast
8:15 PM 39.2 °F 33.0 °F 33.8 °F 81% 29.95 in 10.0 mi West 9.2 mph - N/A   Overcast
8:35 PM 39.2 °F 34.2 °F 32.0 °F 75% 29.95 in 10.0 mi WNW 6.9 mph - N/A   Overcast
8:55 PM 37.4 °F 32.1 °F 32.0 °F 81% 29.94 in 10.0 mi West 6.9 mph - N/A   Overcast
9:15 PM 37.4 °F 32.1 °F 32.0 °F 81% 29.94 in 10.0 mi West 6.9 mph - N/A   Overcast
9:35 PM 37.4 °F 32.8 °F 32.0 °F 81% 29.95 in 10.0 mi West 5.8 mph - N/A   Overcast
9:55 PM 37.4 °F 32.1 °F 32.0 °F 81% 29.95 in 10.0 mi West 6.9 mph - N/A   Overcast
10:15 PM 37.4 °F 32.1 °F 32.0 °F 81% 29.95 in 10.0 mi West 6.9 mph - N/A   Mostly Cloudy
10:35 PM 37.4 °F 32.1 °F 32.0 °F 81% 29.95 in 10.0 mi WSW 6.9 mph - N/A   Mostly Cloudy
10:55 PM 35.6 °F 29.9 °F 32.0 °F 87% 29.95 in 10.0 mi WSW 6.9 mph - N/A   Scattered Clouds
11:15 PM 35.6 °F 30.7 °F 32.0 °F 87% 29.96 in 10.0 mi West 5.8 mph - N/A   Scattered Clouds
11:35 PM 35.6 °F 30.7 °F 32.0 °F 87% 29.96 in 10.0 mi West 5.8 mph - N/A   Mostly Cloudy
11:55 PM 35.6 °F 29.9 °F 32.0 °F 87% 29.95 in 10.0 mi West 6.9 mph - N/A   Overcast